Location: A�t Bou Chrif
(32.7193°N, 5.2385°W)
Time: 00:45:20
(UTC+00:00)

FREGAT/IRIS - Pass Details

Date: 08 August 2020
Orbit: 315 x 319 km, 96.9° (Epoch: 18 September)

Event Time Altitude Azimuth Distance (km) Brightness Sun altitude
Exits shadow 20:19:46 14° 179° (S) 1,055 4.5 -13.7°
Maximum altitude 20:21:56 62° 260° (W) 376 2.7 -14.1°
Drops below altitude 10° 20:24:35 10° 342° (NNW) 1,260 5.9 -14.6°
Sets 20:26:30 0° 346° (NNW) 2,099 7.0 -14.9°
